KGZS

Details ICAO KGZS
Name ABERNATHY FLD
Region United States
Timezone America/Chicago (UTC-5.0)
Plans Departing 1
Arriving 1
Stats Elevation 685 ft / 209 m (AMSL)
Location 35.153707° -87.056815°
Runways 1
Magnetic Variation 3.493° W
Sunrise 2018-06-20 10:35:18 UTC / 2018-06-20 05:35:18 Local
Sunset 2018-06-21 01:06:51 UTC / 2018-06-20 20:06:51 Local
Advertisement - Login to hide

Runways

ID Width Length Bearing (true) Bearing (mag) Surface Threshold Offset Overrun Length
16 75 ft / 23 m 5,007 ft / 1,526 m 153.10° 156.59° Asphalt 0 ft / 0 m 0 ft / 0 m
34 75 ft / 23 m 5,007 ft / 1,526 m 333.10° 336.59° Asphalt 0 ft / 0 m 0 ft / 0 m

Map

Weather


0- 5 10 15 20 25 30 35+ Temperature / ° C

Clouds and Precipitation
Forecast for 2018-06-21 00:00 UTC. Updated an hour ago

Ground ~20,000 ft ~40,000 ft Winds

METAR

KGZS 202215Z AUTO 00000KT 10SM CLR 28/22 A2993 RMK A01

TAF

Not found

Frequencies

Recorded 118.27 MHz AWOS 3
Unicom 122.80 MHz CTAF/UNICOM
Warning: Do not use this data for real-world aviation or navigation. No guarantee of current accuracy is given.